Location: West Cummington
(42.4920°N, 72.9680°W)
Time: 16:37:21
(UTC-04:00)

Cosmos 1703 Rocket - Visible Passes

Search period start: 01 July 2016 00:00
Search period end: 11 July 2016 00:00
Orbit: 605 x 635 km, 82.5° (Epoch: 30 June)

Date Brightness Start Highest point End Pass type
(mag) Time Alt. Az. Time Alt. Az. Time Alt. Az.
01 Jul 5.6 00:24:13 10° NW 00:27:03 17° W 00:27:50 16° W visible
01 Jul 3.5 23:02:50 10° N 23:07:13 79° E 23:08:18 50° SSE visible
02 Jul 5.6 21:44:17 10° NE 21:46:36 14° ENE 21:48:47 10° E visible
02 Jul 4.0 23:20:34 10° NNW 23:24:50 54° W 23:25:58 41° SW visible
03 Jul 4.9 22:00:53 10° NNE 22:04:30 25° ENE 22:06:27 18° ESE visible
03 Jul 5.0 23:38:35 10° NNW 23:42:21 29° W 23:43:38 24° WSW visible
04 Jul 4.1 22:18:05 10° N 22:22:18 45° ENE 22:24:09 28° SE visible
04 Jul 5.8 23:57:07 10° NW 23:59:47 16° W 00:01:19 14° WSW visible
05 Jul 3.5 22:35:35 10° N 22:40:00 86° E 22:41:51 35° S visible
06 Jul 5.5 21:16:49 10° NNE 21:19:25 15° ENE 21:22:00 10° ESE visible
06 Jul 4.2 22:53:20 10° NNW 22:57:36 49° W 22:59:35 28° SSW visible
07 Jul 4.8 21:33:33 10° NNE 21:37:18 27° ENE 21:40:08 15° SE visible
07 Jul 5.3 23:11:25 10° NNW 23:15:06 27° W 23:17:19 18° SW visible
08 Jul 3.9 21:50:48 10° N 21:55:05 49° ENE 21:57:54 20° SSE visible
08 Jul 6.1 23:30:04 10° NW 23:32:31 15° W 23:34:58 10° WSW visible
09 Jul 3.5 22:08:20 10° N 22:12:46 87° W 22:15:40 21° S visible
10 Jul 4.5 22:26:08 10° NNW 22:30:21 45° W 22:33:29 17° SSW visible
